Вернуться в каталог

STARLINK-35473

АктивенСвязьVLEO
NORAD 65937·PAYLOAD·🇺🇸 United States

Запущен Oct 8, 2025 с Vandenberg Space Force Base

Loading…

Ближайшие Пролёты (ближайшие 24 часа)

TLE

СвежийSource: CelesTrak SupGP

Эпоха: Sep 14, 2026, 15:33 UTC

1 65937C 25225AD  26257.64840278 -.00016124  00000+0 -47668-3 0  2573
2 65937  53.1606   5.2317 0001251  84.2038  49.0643 15.34379203    19

Отслеживайте STARLINK-35473 в реальном времени с AllMySat

Download on the App Store